sat.trackr.live / text

‹ back to catalog

STARLINK-5661

NORAD 55343 · 2023-013N

PAYLOAD ACTIVE UNKNOWN

§ Identity

Operator
Country
US
Launch date
2023-01-26
Launch site
AFETR
Launch vehicle
Mass (kg)
RCS (m²)

Purposes: comms

External: N2YO · Heavens-Above · Gunter

§ Orbital elements

Epoch: 2026-09-20T12:20:37.369824Z

Period
94.27 min
Inclination
43.0058°
Eccentricity
0.0001456
Mean motion
15.27576536 rev/d
Perigee alt
482.1 km
Apogee alt
484.1 km
Semi-major
6,861.2 km
B*
6.8245e-6
RAAN
282.7730°
Arg perigee
278.0606°
Mean anomaly
82.0081°
Rev number
20,147

§ Raw data

STARLINK-56611 55343U 23013N   26263.51432141 -.00000074  00000+0  68245-5 0  99902 55343  43.0058 282.7730 0001456 278.0606  82.0081 15.27576536201476

JSON: /api/v1/satellites/55343 · /tle

For live sub-satellite position, see the globe view (requires WebGL).

§ Visibility from observer

Set your observer location to see the next 7 days of passes ≥ 10°. The values pass through the URL so the page stays shareable.

No JS? Fill the form by hand. The geolocation button needs JavaScript.